User: anonymous   Login
Location: Unspecified
(0.0000°N, 0.0000°E)
Time: 06:10:19
(UTC+00:00)
Language:

USA 118 - Orbit

View from above orbital plane
View from above orbital plane
View from above satellite
View from above satellite

Ground track
Ground track

The orbit data is extracted from the following two-line orbital elements,

1 23855U 96026A   17283.80871668 0.00000000  00000-0  00000-0 0    04
2 23855   9.4824 359.9568 0405091 244.4860 111.2573  1.00270000    04
Epoch (UTC): 10 October 2017 19:24:33
Eccentricity: 0.0405091
inclination: 9.4824°
perigee height: 34078 km
apogee height: 37495 km
right ascension of ascending node: 359.9568°
argument of perigee: 244.4860°
revolutions per day: 1.00270000
mean anomaly at epoch: 111.2573°
orbit number at epoch: 0

The dashed part of the orbit path shows where the satellite is in the earth's shadow,  

DLR